SCO15YB EGPH-EGSS

Flight info

Callsign SCO15YB
Flight time 1h 2m
Altitude 33000
Route GOSAM P600 FENIK L612 NAVSO DCT AKOMU DCT VAMEB UL612 LISTO
Aircraft B738/M-SDE2E3FGHIRWXY/LB1

Departure

Time 2026-04-26 21:14
Airport Edinburgh Airport (EGPH)

Arrival

Time 2026-04-26 22:17
Airport London Stansted Airport (EGSS)
Time Latitude Longitude Altitude Speed Heading
2026-04-26 20:53 55.94706 -3.35295 111 ft 0 kts 208°
2026-04-26 21:06 55.94716 -3.35286 111 ft 2 kts 208°
2026-04-26 21:06 55.94730 -3.35272 109 ft 2 kts 208°
2026-04-26 21:06 55.94744 -3.35258 111 ft 2 kts 208°
2026-04-26 21:07 55.94753 -3.35249 110 ft 0 kts 208°
2026-04-26 21:09 55.94753 -3.35250 110 ft 0 kts 216°
2026-04-26 21:09 55.94748 -3.35265 111 ft 1 kts 251°
2026-04-26 21:09 55.94754 -3.35278 110 ft 4 kts 303°
2026-04-26 21:09 55.94781 -3.35361 111 ft 12 kts 298°
2026-04-26 21:10 55.94832 -3.35528 111 ft 19 kts 299°
2026-04-26 21:10 55.94900 -3.35754 111 ft 20 kts 298°
2026-04-26 21:10 55.94994 -3.35847 110 ft 16 kts 21°
2026-04-26 21:10 55.95101 -3.35799 111 ft 11 kts 331°
2026-04-26 21:11 55.95138 -3.35904 111 ft 12 kts 302°
2026-04-26 21:11 55.95220 -3.35984 111 ft 12 kts 360°
2026-04-26 21:11 55.95268 -3.35903 111 ft 11 kts 69°
2026-04-26 21:11 55.95315 -3.35749 111 ft 18 kts 60°
2026-04-26 21:12 55.95392 -3.35521 110 ft 23 kts 58°
2026-04-26 21:12 55.95477 -3.35423 112 ft 11 kts 343°
2026-04-26 21:12 55.95497 -3.35439 110 ft 0 kts 330°
2026-04-26 21:12 55.95498 -3.35441 110 ft 3 kts 330°
2026-04-26 21:13 55.95552 -3.35506 112 ft 14 kts 313°
2026-04-26 21:13 55.95538 -3.35662 112 ft 15 kts 239°
2026-04-26 21:13 55.95443 -3.35943 108 ft 40 kts 239°
2026-04-26 21:13 55.95162 -3.36770 111 ft 119 kts 239°
2026-04-26 21:14 55.94625 -3.38373 338 ft 170 kts 240°
2026-04-26 21:14 55.94022 -3.40233 1394 ft 174 kts 241°
2026-04-26 21:14 55.93408 -3.42122 2487 ft 181 kts 241°
2026-04-26 21:14 55.92743 -3.44033 3618 ft 182 kts 239°
2026-04-26 21:15 55.92056 -3.45949 4679 ft 185 kts 239°
2026-04-26 21:15 55.91352 -3.47940 5508 ft 198 kts 240°
2026-04-26 21:15 55.90587 -3.50153 5762 ft 226 kts 244°
2026-04-26 21:15 55.90204 -3.52830 6297 ft 217 kts 262°
2026-04-26 21:16 55.89976 -3.55440 6220 ft 207 kts 261°
2026-04-26 21:16 55.89739 -3.57918 6250 ft 202 kts 261°
2026-04-26 21:16 55.89483 -3.60540 6325 ft 232 kts 260°
2026-04-26 21:16 55.89182 -3.63582 6325 ft 261 kts 260°
2026-04-26 21:17 55.88864 -3.66790 6408 ft 261 kts 260°
2026-04-26 21:17 55.88546 -3.69994 6406 ft 266 kts 260°
2026-04-26 21:17 55.88221 -3.73204 6363 ft 262 kts 260°
2026-04-26 21:17 55.87898 -3.76382 6303 ft 259 kts 260°
2026-04-26 21:18 55.87580 -3.79524 6343 ft 258 kts 260°
2026-04-26 21:18 55.87262 -3.82710 6768 ft 267 kts 260°
2026-04-26 21:18 55.86921 -3.86148 6946 ft 295 kts 260°
2026-04-26 21:18 55.86547 -3.89906 7171 ft 320 kts 260°
2026-04-26 21:19 55.86143 -3.93946 7386 ft 342 kts 260°
2026-04-26 21:19 55.85719 -3.98184 7943 ft 352 kts 260°
2026-04-26 21:19 55.85285 -4.02499 8691 ft 355 kts 260°
2026-04-26 21:19 55.84851 -4.06785 9467 ft 358 kts 260°
2026-04-26 21:20 55.84243 -4.11091 10188 ft 363 kts 246°
2026-04-26 21:20 55.82719 -4.14684 10836 ft 370 kts 221°
2026-04-26 21:20 55.80655 -4.17463 11551 ft 373 kts 221°
2026-04-26 21:20 55.78724 -4.20556 12162 ft 377 kts 225°
2026-04-26 21:21 55.76644 -4.23459 12783 ft 383 kts 216°
2026-04-26 21:21 55.74358 -4.25920 13409 ft 389 kts 205°
2026-04-26 21:21 55.71683 -4.26887 14052 ft 398 kts 182°
2026-04-26 21:21 55.68913 -4.26321 14639 ft 406 kts 168°
2026-04-26 21:22 55.66291 -4.24347 15153 ft 414 kts 153°
2026-04-26 21:22 55.63779 -4.21839 15923 ft 412 kts 153°
2026-04-26 21:22 55.61297 -4.19319 16627 ft 412 kts 153°
2026-04-26 21:23 55.56244 -4.14276 17685 ft 421 kts 154°
2026-04-26 21:23 55.53669 -4.11755 18227 ft 425 kts 154°
2026-04-26 21:23 55.51073 -4.09230 18724 ft 429 kts 154°
2026-04-26 21:23 55.48440 -4.06673 19207 ft 432 kts 154°
2026-04-26 21:24 55.45804 -4.04113 19706 ft 434 kts 154°
2026-04-26 21:24 55.43154 -4.01540 20199 ft 436 kts 154°
2026-04-26 21:24 55.40487 -3.98952 20675 ft 439 kts 154°
2026-04-26 21:24 55.37803 -3.96352 21125 ft 442 kts 154°
2026-04-26 21:25 55.35099 -3.93735 21577 ft 445 kts 154°
2026-04-26 21:25 55.32380 -3.91108 22019 ft 447 kts 154°
2026-04-26 21:25 55.29648 -3.88472 22458 ft 450 kts 154°
2026-04-26 21:25 55.26896 -3.85820 22878 ft 452 kts 154°
2026-04-26 21:26 55.24131 -3.83161 23291 ft 455 kts 154°
2026-04-26 21:26 55.21343 -3.80496 23703 ft 457 kts 155°
2026-04-26 21:26 55.18510 -3.77950 24054 ft 459 kts 156°
2026-04-26 21:26 55.15643 -3.75494 24410 ft 460 kts 157°
2026-04-26 21:27 55.13728 -3.73880 24682 ft 460 kts 158°
2026-04-26 21:27 55.10835 -3.71451 25048 ft 461 kts 158°
2026-04-26 21:27 55.07944 -3.69016 25392 ft 463 kts 158°
2026-04-26 21:27 55.05042 -3.66560 25722 ft 464 kts 158°
2026-04-26 21:28 55.02129 -3.64084 26031 ft 466 kts 158°
2026-04-26 21:28 54.99219 -3.61604 26424 ft 466 kts 158°
2026-04-26 21:28 54.96318 -3.59131 26923 ft 463 kts 158°
2026-04-26 21:28 54.93441 -3.56677 27455 ft 459 kts 158°
2026-04-26 21:29 54.90584 -3.54246 27977 ft 456 kts 158°
2026-04-26 21:29 54.87737 -3.51829 28450 ft 454 kts 158°
2026-04-26 21:29 54.84902 -3.49427 28890 ft 453 kts 159°
2026-04-26 21:29 54.82078 -3.47039 29345 ft 451 kts 159°
2026-04-26 21:30 54.79261 -3.44660 29825 ft 449 kts 159°
2026-04-26 21:30 54.76459 -3.42299 30287 ft 447 kts 159°
2026-04-26 21:30 54.73659 -3.39943 30644 ft 447 kts 159°
2026-04-26 21:30 54.70863 -3.37594 30955 ft 447 kts 159°
2026-04-26 21:31 54.68067 -3.35250 31269 ft 447 kts 159°
2026-04-26 21:31 54.65274 -3.32910 31606 ft 446 kts 159°
2026-04-26 21:31 54.62484 -3.30576 31951 ft 445 kts 159°
2026-04-26 21:31 54.59701 -3.28251 32287 ft 444 kts 159°
2026-04-26 21:32 54.56922 -3.25934 32595 ft 444 kts 159°
2026-04-26 21:32 54.54146 -3.23621 32925 ft 443 kts 159°
2026-04-26 21:32 54.51375 -3.21317 33243 ft 442 kts 160°
2026-04-26 21:32 54.48600 -3.19014 33292 ft 444 kts 160°
2026-04-26 21:33 54.43041 -3.14410 33280 ft 440 kts 160°
2026-04-26 21:33 54.37528 -3.09856 33294 ft 440 kts 160°
2026-04-26 21:34 54.32009 -3.05313 33291 ft 440 kts 160°
2026-04-26 21:34 54.26480 -3.00774 33292 ft 441 kts 160°
2026-04-26 21:35 54.20947 -2.96243 33287 ft 441 kts 160°
2026-04-26 21:35 54.15399 -2.91757 33290 ft 440 kts 161°
2026-04-26 21:36 54.09868 -2.87207 33295 ft 444 kts 155°
2026-04-26 21:36 54.07145 -2.84805 33258 ft 437 kts 167°
2026-04-26 21:36 54.04242 -2.83394 33312 ft 433 kts 168°
2026-04-26 21:37 53.98562 -2.79796 33283 ft 439 kts 162°
2026-04-26 21:37 53.92961 -2.75644 33284 ft 438 kts 162°
2026-04-26 21:38 53.87352 -2.71589 33284 ft 439 kts 162°
2026-04-26 21:38 53.81742 -2.67533 33281 ft 438 kts 162°
2026-04-26 21:39 53.76134 -2.63492 33283 ft 438 kts 162°
2026-04-26 21:39 53.70530 -2.59484 33284 ft 437 kts 162°
2026-04-26 21:40 53.64938 -2.55495 33280 ft 436 kts 162°
2026-04-26 21:40 53.59358 -2.51521 33290 ft 435 kts 162°
2026-04-26 21:41 53.53780 -2.47546 33283 ft 435 kts 162°
2026-04-26 21:41 53.48214 -2.43592 33287 ft 434 kts 162°
2026-04-26 21:42 53.42662 -2.39666 33297 ft 433 kts 162°
2026-04-26 21:42 53.37118 -2.35763 33293 ft 432 kts 163°
2026-04-26 21:43 53.31583 -2.31874 33295 ft 431 kts 163°
2026-04-26 21:43 53.26085 -2.28021 33287 ft 431 kts 163°
2026-04-26 21:44 53.20551 -2.24191 33292 ft 431 kts 163°
2026-04-26 21:44 53.15077 -2.20030 33288 ft 436 kts 156°
2026-04-26 21:45 53.09859 -2.14857 33290 ft 438 kts 154°
2026-04-26 21:45 53.04666 -2.09557 33284 ft 438 kts 154°
2026-04-26 21:46 52.99667 -2.03728 33257 ft 451 kts 135°
2026-04-26 21:46 52.96338 -1.94753 33294 ft 461 kts 122°
2026-04-26 21:47 52.93304 -1.85391 33278 ft 458 kts 128°
2026-04-26 21:47 52.91460 -1.81158 33387 ft 451 kts 136°
2026-04-26 21:47 52.89250 -1.77404 32488 ft 463 kts 146°
2026-04-26 21:48 52.86548 -1.74466 32045 ft 460 kts 161°
2026-04-26 21:48 52.83666 -1.73079 33589 ft 403 kts 180°
2026-04-26 21:48 52.81014 -1.73152 34738 ft 371 kts 194°
2026-04-26 21:48 52.78512 -1.74343 33695 ft 387 kts 208°
2026-04-26 21:49 52.76100 -1.76832 31080 ft 438 kts 222°
2026-04-26 21:49 52.74009 -1.80849 28671 ft 483 kts 239°
2026-04-26 21:49 52.72734 -1.85991 28225 ft 480 kts 257°
2026-04-26 21:49 52.72590 -1.91280 29544 ft 447 kts 276°
2026-04-26 21:50 52.73524 -1.95992 30955 ft 427 kts 296°
2026-04-26 21:50 52.74684 -1.98575 31510 ft 423 kts 311°
2026-04-26 21:50 52.78007 -2.01590 32712 ft 405 kts 331°
2026-04-26 21:50 52.80343 -2.03818 33597 ft 376 kts 320°
2026-04-26 21:51 52.82496 -2.06284 33745 ft 382 kts 319°
2026-04-26 21:51 52.84664 -2.08983 33307 ft 396 kts 315°
2026-04-26 21:51 52.86793 -2.11839 33545 ft 396 kts 314°
2026-04-26 21:51 52.88959 -2.14779 33355 ft 406 kts 314°
2026-04-26 21:52 52.92718 -2.21602 33307 ft 398 kts 286°
2026-04-26 21:52 52.93264 -2.26017 33288 ft 390 kts 264°
2026-04-26 21:52 52.92876 -2.30458 33302 ft 390 kts 252°
2026-04-26 21:53 52.91911 -2.34594 33300 ft 393 kts 240°
2026-04-26 21:53 52.90329 -2.38295 33284 ft 395 kts 226°
2026-04-26 21:53 52.88216 -2.41092 33276 ft 384 kts 211°
2026-04-26 21:53 52.85780 -2.42727 33281 ft 375 kts 197°
2026-04-26 21:54 52.83217 -2.43197 33285 ft 369 kts 182°
2026-04-26 21:54 52.80700 -2.42578 33284 ft 364 kts 169°
2026-04-26 21:54 52.78384 -2.40979 33285 ft 360 kts 157°
2026-04-26 21:54 52.76321 -2.38660 33282 ft 363 kts 145°
2026-04-26 21:55 52.74580 -2.35498 33310 ft 379 kts 131°
2026-04-26 21:55 52.73079 -2.31858 33309 ft 389 kts 129°
2026-04-26 21:55 52.70155 -2.24146 33306 ft 404 kts 128°
2026-04-26 21:56 52.67139 -2.16134 33307 ft 417 kts 128°
2026-04-26 21:56 52.64000 -2.07934 33308 ft 430 kts 128°
2026-04-26 21:57 52.60740 -1.99519 33307 ft 442 kts 128°
2026-04-26 21:57 52.57377 -1.90892 33306 ft 453 kts 128°
2026-04-26 21:58 52.53931 -1.82084 33303 ft 463 kts 128°
2026-04-26 21:58 52.50408 -1.73107 33302 ft 472 kts 128°
2026-04-26 21:59 52.46812 -1.63976 33297 ft 480 kts 128°
2026-04-26 21:59 52.43190 -1.54804 33283 ft 477 kts 128°
2026-04-26 22:00 52.39600 -1.45740 33282 ft 471 kts 128°
2026-04-26 22:00 52.37852 -1.41340 33076 ft 462 kts 128°
2026-04-26 22:00 52.36084 -1.36899 32474 ft 460 kts 128°
2026-04-26 22:01 52.34348 -1.32551 31665 ft 456 kts 127°
2026-04-26 22:01 52.32610 -1.28209 30788 ft 454 kts 127°
2026-04-26 22:01 52.30914 -1.23977 29974 ft 450 kts 127°
2026-04-26 22:01 52.29206 -1.19721 29186 ft 444 kts 127°
2026-04-26 22:02 52.27524 -1.15534 28411 ft 438 kts 127°
2026-04-26 22:02 52.26397 -1.12733 27867 ft 434 kts 127°
2026-04-26 22:02 52.24216 -1.07325 26822 ft 429 kts 127°
2026-04-26 22:02 52.22561 -1.03227 26056 ft 425 kts 126°
2026-04-26 22:03 52.20961 -0.99274 25333 ft 421 kts 126°
2026-04-26 22:03 52.19335 -0.95262 24608 ft 417 kts 126°
2026-04-26 22:03 52.17742 -0.91335 23914 ft 413 kts 126°
2026-04-26 22:03 52.16165 -0.87455 23134 ft 409 kts 126°
2026-04-26 22:04 52.14620 -0.83660 22406 ft 405 kts 126°
2026-04-26 22:04 52.13053 -0.79814 21688 ft 400 kts 126°
2026-04-26 22:04 52.11522 -0.76064 20980 ft 395 kts 126°
2026-04-26 22:04 52.10006 -0.72357 20274 ft 392 kts 126°
2026-04-26 22:05 52.08524 -0.68737 19616 ft 388 kts 126°
2026-04-26 22:05 52.07036 -0.65108 18963 ft 384 kts 126°
2026-04-26 22:05 52.05584 -0.61568 18716 ft 369 kts 126°
2026-04-26 22:05 52.04193 -0.58178 18598 ft 351 kts 126°
2026-04-26 22:06 52.02869 -0.54957 18343 ft 338 kts 126°
2026-04-26 22:06 52.01569 -0.51803 17819 ft 335 kts 126°
2026-04-26 22:06 52.00277 -0.48675 17241 ft 333 kts 126°
2026-04-26 22:06 51.98992 -0.45570 16718 ft 331 kts 126°
2026-04-26 22:07 51.97716 -0.42486 16223 ft 327 kts 126°
2026-04-26 22:07 51.96452 -0.39434 15719 ft 324 kts 126°
2026-04-26 22:07 51.95199 -0.36413 15229 ft 322 kts 126°
2026-04-26 22:07 51.94357 -0.34383 14901 ft 320 kts 126°
2026-04-26 22:08 51.92726 -0.30459 14279 ft 317 kts 127°
2026-04-26 22:08 51.91496 -0.27503 13769 ft 314 kts 127°
2026-04-26 22:08 51.90311 -0.24659 13265 ft 312 kts 126°
2026-04-26 22:08 51.89074 -0.21692 12760 ft 309 kts 126°
2026-04-26 22:09 51.87884 -0.18842 12293 ft 303 kts 126°
2026-04-26 22:09 51.86710 -0.16032 11622 ft 300 kts 126°
2026-04-26 22:09 51.85541 -0.13237 10915 ft 300 kts 125°
2026-04-26 22:09 51.84377 -0.10458 10297 ft 296 kts 124°
2026-04-26 22:10 51.83228 -0.07716 9646 ft 293 kts 124°
2026-04-26 22:10 51.82004 -0.05190 9326 ft 276 kts 142°
2026-04-26 22:10 51.80350 -0.04024 9139 ft 254 kts 175°
2026-04-26 22:10 51.78613 -0.04046 8676 ft 248 kts 185°
2026-04-26 22:11 51.76904 -0.04067 8063 ft 246 kts 167°
2026-04-26 22:11 51.75423 -0.02771 7354 ft 245 kts 141°
2026-04-26 22:11 51.74146 -0.01057 7001 ft 228 kts 138°
2026-04-26 22:11 51.73128 0.00721 6835 ft 206 kts 131°
2026-04-26 22:12 51.72321 0.02542 6410 ft 199 kts 107°
2026-04-26 22:12 51.72392 0.04680 5877 ft 193 kts 60°
2026-04-26 22:12 51.72980 0.05724 5551 ft 191 kts 30°
2026-04-26 22:12 51.74250 0.06282 5004 ft 192 kts 10°
2026-04-26 22:13 51.75597 0.06611 4334 ft 199 kts 10°
2026-04-26 22:13 51.76973 0.06947 3731 ft 201 kts 10°
2026-04-26 22:13 51.78298 0.07547 3148 ft 198 kts 36°
2026-04-26 22:13 51.79151 0.09183 2814 ft 186 kts 55°
2026-04-26 22:14 51.80359 0.11220 2456 ft 197 kts 43°
2026-04-26 22:14 51.81038 0.12229 2287 ft 194 kts 43°
2026-04-26 22:14 51.82016 0.13695 1996 ft 189 kts 44°
2026-04-26 22:14 51.82974 0.15140 1735 ft 187 kts 44°
2026-04-26 22:15 51.83890 0.16522 1466 ft 171 kts 44°
2026-04-26 22:15 51.84714 0.17763 1247 ft 154 kts 45°
2026-04-26 22:15 51.85470 0.18906 1044 ft 147 kts 45°
2026-04-26 22:15 51.86211 0.20024 827 ft 148 kts 45°
2026-04-26 22:16 51.86962 0.21173 576 ft 149 kts 45°
2026-04-26 22:16 51.87728 0.22328 387 ft 146 kts 45°
2026-04-26 22:16 51.88412 0.23349 354 ft 106 kts 43°
2026-04-26 22:16 51.88765 0.23883 351 ft 56 kts 44°
2026-04-26 22:17 51.88896 0.24317 353 ft 33 kts 72°
2026-04-26 22:17 51.88894 0.24534 355 ft 14 kts 133°
2026-04-26 22:17 51.88845 0.24617 352 ft 8 kts 133°
2026-04-26 22:17 51.88813 0.24692 356 ft 8 kts 100°
2026-04-26 22:18 51.88838 0.24771 356 ft 8 kts 44°
2026-04-26 22:18 51.88877 0.24832 357 ft 8 kts 44°
2026-04-26 22:18 51.88926 0.24909 360 ft 13 kts 47°
2026-04-26 22:18 51.88901 0.25019 355 ft 11 kts 158°
2026-04-26 22:19 51.88838 0.24971 356 ft 7 kts 222°
2026-04-26 22:19 51.88833 0.24964 358 ft 0 kts 222°